Location: ???????
(55.3754°N, 39.3545°E)
Time: 10:37:48
(UTC+00:00)

ATLAS 3B R/B - Pass Details

Date: 14 April 2026
Orbit: 937 x 1257 km, 63.8° (Epoch: 10 May)

Event Time Altitude Azimuth Distance (km) Brightness Sun altitude
Rises 23:32:46 0° 312° (NW) 4,216 5.9 -19.5°
Reaches altitude 10° 23:35:40 10° 308° (NW) 3,236 5.2 -19.3°
Maximum altitude 23:43:12 53° 235° (SW) 1,467 3.0 -18.6°
Drops below altitude 10° 23:50:21 10° 161° (SSE) 3,069 4.8 -18.0°
Sets 23:53:02 0° 157° (SSE) 3,983 5.4 -17.8°
